COSMOS 1736 FUEL CORE

Satellite information

Favourite Embed

Satellite Type and Status

DEBRISIN ORBIT

Key statistics

Satellite COSMOS 1736 FUEL CORE at a glance.

Uptime

14293

Days in orbit

Revolutions

≈ 13.8

Per day

Orbit

LEO

Low Earth Orbit

Inclination

65.0

Latest

Satellite identification and parameters

Extended collection of information and parameters for COSMOS 1736 FUEL CORE.

Object identification

Identified? True

Debris? False

Object name: COSMOS 1736 FUEL CORE

International designator: 1986-024E

Object number (NORAD): 16809

Object ID (CCSDS): 16809

Country: COMMONWEALTH OF INDEPENDENT STATES (CIS)

Current information (Y/N): Y

RCS size: MEDIUM

Orbital parameters

Period: 104.22 minutes

Inclination: 64.9868 deg

SMA: 7336.04 km

Apoapsis: 989.004 km

Periapsis: 926.806 km

RAAN: 112.0186 deg

Eccentricy: 0.0042392

Argument of periapsis: 309.521 deg

Mean anomaly: 199.0633 deg

Mean motion: 13.81688742 rev/day

Mean motion (dot): -0.00000068 rev/day2

B* drag term: 0.000018777 1/REarth

Two-line elements (TLE)

Creation date: May 8, 2025, 3:01 a.m.

Reference frame: TEME

Reference center: EARTH

Epoch: May 7, 2025, 9:01 a.m. UTC

TLE line 0: 0 COSMOS 1736 FUEL CORE

TLE line 1: 1 16809U 86024E 25127.37634869 -.00000068 00000-0 18777-4 0 9996

TLE line 2: 2 16809 64.9868 112.0186 0042392 309.5210 199.0633 13.81688742976052

Live tracking on map

Real-time ground track for satellite COSMOS 1736 FUEL CORE.

In-orbit conjunctions

A list of the most updated potential collisions computed for object COSMOS 1736 FUEL CORE.

Target Orbit TCA Probability of collision Miss distance Type
THORAD AGENA D DEB SSO 2024-12-19 00:59:34 0.0001762109 228.0 (m) DEBRIS
SL-8 R/B LEO 2024-11-12 15:38:54 0.000173118 449.0 (m) ROCKET BODY

Associated space launch

Active radar satellite for ocean surveillance powered by a nuclear reactor.

COSMOS 1736 FUEL CORE was lifted into orbit during the mission ‘Tsiklon-2 | US-A 28’, on board a Tsiklon-2 space rocket.

The launch took place on March 21, 1986, 10:05 a.m. from 90.

For more information about the launch, click the button.

Launch to space Tsiklon-2 | US-A 28
Tsiklon-2 | US-A 28

Agency: N/A

Status: Launch Successful

Launch date: March 21, 1986, 10:05 a.m. UTC

Rocket: Tsiklon-2

Launch pad: 90

Location: Baikonur Cosmodrome, Republic of Kazakhstan

...

Latest news about this satellite

There are no fresh news available about this satellite. Check back as we update our databases every day.


Newsletter sign-up

Weekly statistics, charts and insights to help you stay on top of the space industry.